Regional Weather Roundup
Issued by NWS Grand Forks, ND

Home | Current Version | Previous Version | Text Only | Print | Product List | Glossary Off
Versions: 1 2 3 4 5 6 7 8 9 10 11 12 13 14 15 16 17 18 19 20 21 22 23 24 25 26 27 28 29 30 31 32 33 34 35 36 37 38 39 40 41 42 43 44 45 46 47 48 49 50

509
ASUS43 KFGF 082231
RWRFGF
PRAIRIE TO PINES  WEATHER ROUNDUP
NATIONAL WEATHER SERVICE EASTERN NORTH DAKOTA/GRAND FORKS ND
400 PM CST MON FEB 08 2016

 **SATELLITE DATA USED TO AUGMENT SKY COVER AT AUTOMATED STATIONS**
 *****  WEATHER ACROSS EASTERN NORTH DAKOTA  *****

CITY           SKY/WX    TMP DP  RH WIND       PRES   REMARKS
GRAND FORKS    BLWGSNOW  14   6  70 N28G40    30.21F VSB 1   WCI  -6
GRAND FRKS AFB CLOUDY    12   5  73 N21G28    30.22R WCI  -6
DEVILS LAKE    SUNNY     19  12  74 N22       30.21R WCI   2
FARGO          LGT SNOW  13   6  74 N21G30    30.20R WCI  -5
WAHPETON ARPT  MOCLDY    16   5  62 N24G35    30.17R WCI  -3
$$

 ***** WEATHER ACROSS CENTRAL AND WESTERN NORTH DAKOTA  *****

CITY           SKY/WX    TMP DP  RH WIND       PRES   REMARKS
BISMARCK       CLOUDY    37  18  46 NW23G30   30.23F
MINOT          CLOUDY    32  10  40 NW21      30.24S WCI  20
JAMESTOWN      SUNNY     25  12  58 N26G36    30.16F WCI   9
MINOT AFB      PTSUNNY   30  11  45 N17G26    30.24S WCI  18
GARRISON         N/A     32  17  54 NW20      30.23F WCI  20
WILLISTON      CLOUDY    35  18  49 NW12      30.29F
DICKINSON      CLOUDY    33  12  41 NW23G29   30.23F WCI  21
HETTINGER      CLOUDY    37   9  31 N22       30.25S
$$

 *****  OTHER AIRPORT OBSERVATIONS IN OUR AREA  *****

CITY           SKY/WX    TMP DP  RH WIND       PRES   REMARKS
WALHALLA       FAIR      12   9  85 N21       30.25S WCI  -6
GRAFTON AIRPOR CLOUDY    10   5  79 N22G33    30.25F HAZE    WCI  -9
VALLEY CITY AR FLURRIES  19  10  68 N17G30    30.19S WCI   4
CANDO          FAIR      19  12  73 N16G25    30.23S WCI   5
CAVALIER APRT  CLOUDY    10   5  79 N22G30    30.24F WCI  -9
GWINNER        FAIR      23  14  68 N21G28    30.17S WCI   8
SHEYENNE NWR     N/A     18  11  74 N14       29.95S WCI   4
ROLLA          FAIR      19   9  63 N24       30.20R WCI   2
 ***** THE ABOVE OBSERVATIONS ARE NON NWS ARE NOT QUALITY
       CONTROLLED AND MAY MIS-REPORT RAIN FOR SNOW...
$$

  *****  WEATHER ACROSS NORTHERN MINNESOTA  *****

CITY           SKY/WX    TMP DP  RH WIND       PRES   REMARKS
FLAG ISLAND    CLOUDY     5   0  78 NW21      30.09S WCI -16
WARROAD        LGT SNOW   9   3  78 NW17G24   30.10S WCI -10
ROSEAU         CLOUDY    10   3  72 NW24      30.11S HAZE    WCI -10
HALLOCK        CLOUDY    10   3  72 NW24      30.21R WCI -10
THF RVR FALLS  NOT AVBL
BAUDETTE       LGT SNOW   6  -2  69 NW15G26   30.04S WCI -12
WASKISH        FLURRIES   9   1  72 NW17G23   30.05S WCI -10
CROOKSTON      SNOW      10   9  92 N26G35    30.20R VSB 1/2 WCI -11
STEPHEN NDAWN    N/A     10   3  72 N25         N/A  WCI -10
GREENBUSH NDAW   N/A     10   7  85 NW20        N/A  WCI  -8
$$
  *****  WEATHER ACROSS CENTRAL AND WEST MINNESOTA  *****

CITY           SKY/WX    TMP DP  RH WIND       PRES   REMARKS
FOSSTON        CLOUDY     9   3  78 NW21      30.11S HAZE    WCI -11
BEMIDJI        CLOUDY     8   2  78 NW21G28   30.03S HAZE    WCI -12
PARK RAPIDS    MIX PCPN  11   3  70 NW24G32   30.02R WCI  -9
ELBOW LAKE     LGT SNOW  12   6  76 NW24G30   30.11S WCI  -8
WADENA         CLOUDY    10   3  72 NW17G26   30.04S WCI  -7
DETROIT LAKES  CLOUDY    12   7  79 NW23G33   30.10S WCI  -7
MOORHEAD       CLOUDY    10   7  85 N29G36    30.20R WCI -11
FERGUS FALLS   LGT SNOW  12   7  79 N24G35    30.15S WCI  -8
MORRIS MN      PTSUNNY   14   7  73 N32G43    30.09R WCI  -7
STAPLES        FLURRIES  10   3  72 NW21G31   30.02R WCI  -9
$$
  *****  WEATHER ELSEWHERE ACROSS MINNESOTA  *****

CITY           SKY/WX    TMP DP  RH WIND       PRES   REMARKS
DULUTH         LGT SNOW   9   1  70 NW18G28   29.86R BLWGSNOWWCI -10
INTRNTL FALLS  LGT SNOW   5  -1  76 NW14G21   30.00S VSB 1   WCI -12
ELY            LGT SNOW   7   1  78 NW13G22   29.88R WCI  -9
CLOQUET        FLURRIES  10   1  67 NW18G25   29.90R WCI  -8
WHEATON        LGT SNOW  16  10  79 NW25G38   30.17S WCI  -3
BRAINERD       LGT SNOW  12   4  70 N22       29.99R WCI  -7
HIBBING        LGT SNOW   5   0  79 NW21G33   29.93R VSB 3/4 WCI -16
ALEXANDRIA     LGT SNOW  11   3  70 NW23G33   30.05R WCI  -9
SAINT CLOUD    CLOUDY    15   5  64 NW18G26   29.98R WCI  -2
MINNEAPOLIS    CLOUDY    16   6  65 NW20G28   29.96R WCI  -1
$$

  *****  WEATHER ACROSS SOUTH DAKOTA  *****

CITY           SKY/WX    TMP DP  RH WIND       PRES   REMARKS
SIOUX FALLS    PTSUNNY   25  14  63 NW26G32   30.09S WCI   9
BROOKINGS      FLURRIES  21  13  71 NW28G38   30.06S WCI   3
WATERTOWN      CLOUDY    21  12  68 N26G36    30.08S WCI   4
HURON          PTSUNNY   33  16  49 N20       30.15S WCI  21
SISSETON         N/A     19  12  74 N29       30.14R WCI   0
ABERDEEN       MOSUNNY   33   9  36 N29G40    30.17R WCI  19
MITCHELL       MOSUNNY   33  17  51 NW22G32   30.16S WCI  21
PIERRE         PTSUNNY   36  15  42 NW22G33   30.22S
MOBRIDGE       MOSUNNY   36  18  48 NW20G32   30.18F
RAPID CITY     CLOUDY    41   9  26 N20G35    30.24F
$$

  *****  SOME WEATHER IN NEARBY STATES *****

CITY           SKY/WX    TMP DP  RH WIND       PRES   REMARKS
GLASGOW MT     MOSUNNY   38  22  52 E6        30.28F
GREAT FALLS MT SUNNY     61  27  27 W17       30.34S
CHEYENNE WY    SUNNY     42  24  49 NW20G30   30.32R
SCOTTSBLUFF NE CLOUDY    41  28  60 NW13      30.30S
OMAHA NE       MOSUNNY   30  18  60 N29G39    30.08S WCI  15
DES MOINES IA  LGT SNOW  19  11  70 NW24G33   30.02R BLWGSNOWWCI   2
DAVENPORT IA   CLOUDY    20  11  68 NW21      29.84R WCI   4
CHICAGO IL     CLOUDY    27  20  75 NW13      29.70R WCI  16
EAU CLAIRE WI  LGT SNOW  15   6  67 NW13      29.88R WCI   1
LA CROSSE WI   CLOUDY    17   7  64 NW17      29.89R WCI   1
$$

  *****  SOME NATIONAL WEATHER *****

CITY           SKY/WX    TMP DP  RH WIND       PRES   REMARKS
LA GUARDIA NY  FLURRIES  32  23  69 N9        29.76R WCI  24
RALEIGH NC     CLOUDY    51  29  42 W9        29.65S
ATLANTA GA     PTSUNNY   50  21  32 W17G28    29.76R
NEW ORLEANS LA MOSUNNY   59  12  15 W29G40    30.01S
OKLAHOMA CITY  MOSUNNY   49   4  16 N33G47    30.21F
ALBUQUERQUE NM SUNNY     59  18  20 N10       30.34F
SALT LAKE CITY PTSUNNY   39  28  65 NW7       30.64F
LOS ANGELES CA SUNNY     88  24  10 VRB3      30.08F
BOISE ID       SUNNY     44  35  70 S14       30.65F
SEATTLE WA     MOSUNNY   57  42  57 N6        30.39F
$$

*** WEATHER ACROSS MANITOBA...SASKATCHEWAN AND ONTARIO ***
                ***ONTARIO***

CITY           SKY/WX    TMP DP  RH WIND       PRES   REMARKS
GERALDTON      LGT SNOW   0  -6  78 N8G17     29.79R VSB 1   WCI -15
THUNDER BAY    LGT SNOW   9   1  72 NW14G21   29.85R DRFTSNOWWCI  -8
SIOUX LOOKOUT  LGT SNOW   7   1  78 N9        29.95R DRFTSNOWWCI  -7
TORONTO        LGT RAIN  34  30  86 E17G25    29.61S WCI  23
BIG TROUT LK   PTCLDY    -2 -11  65 NW7       30.07R WCI -16
PICKLE LAKE    FLURRIES   1  -9  60 N8G18     29.92R WCI -12
DRYDEN         FLURRIES   3  -2  78 NW12G21   29.97R WCI -13
KENORA         LGT SNOW   1  -4  78 N13G25    30.05R DRFTSNOWWCI -16
$$
                *** MANITOBA***

CITY           SKY/WX    TMP DP  RH WIND       PRES   REMARKS
BRANDON        MOSUNNY   19  10  68 NW13      30.25S WCI   7
DAUPHIN        SUNNY     12   7  79 W3        30.30R
ISLAND LAKE    FLURRIES   3  -2  78 NW8       30.18S WCI -10
PILOT MOUND      N/A     12   7  79 N14G20      N/A  WCI  -3
THE PAS        CLOUDY    10   1  67 NW8       30.31R WCI  -1
THOMPSON       FLURRIES   0  -8  71 NW9       30.26R WCI -16
WINNIPEG       CLOUDY    10   1  67 N18       30.24R WCI  -8
LYNN LAKE      CLEAR     -4 -11  71 NW7       30.29R WCI -18
CHURCHILL      CRYSTALS -15 -20  76 NW16      30.28R BLWGSNOWWCI -39
GILLAM         CLEAR     -8 -17  65 NW13      30.23R WCI -28
$$
                ***SASKATCHEWAN***

CITY           SKY/WX    TMP DP  RH WIND       PRES   REMARKS
ESTEVAN        PTSUNNY   30  19  64 NW14      30.29S WCI  20
KINDERSLEY     PTSUNNY   34  27  75 W7        30.21F
LLOYDMINSTER   PTSUNNY   34  27  75 W8        30.20R
PRINCE ALBERT  CLOUDY    25  18  74 S6        30.25  WCI  18
REGINA         CLOUDY    28  19  69 CALM      30.29R
YORKTON        PTSUNNY   19  10  68 W8        30.29R WCI   9
N. BATTLEFORD  PTSUNNY   30  21  69 VRB2      30.23F
LA RONGE       MOSUNNY   10   3  72 NE9       30.26R WCI  -2
SASKATOON      CLOUDY    32  23  69 S9        30.23F WCI  24
SWIFT CURRENT  CLOUDY    43  14  31 W7        30.21F
$$
NOTE: THESE ARE AUTOMATED STATIONS WITH LIMITED QUALITY CONTROL
      "FAIR" INDICATES FEW OR NO CLOUDS BELOW 12,000 FEET WITH NO
      SIGNIFICANT WEATHER AND/OR OBSTRUCTIONS TO VISIBILITY.
      SKY/WX - SKY CONDITION AND SIGNIFICANT WEATHER.
      TMP - AIR TEMPERATURE.    DP   - DEWPOINT TEMPERATURE.
      RH  - RELATIVE HUMIDITY.  PRES - PRESSURE.
      HX  - HEAT INDEX.         WCI  - WIND CHILL INDEX.
$




USA.gov is the U.S. government's official web portal to all federal, state and local government web resources and services.